Deering, AK

3:15 PM AKST on November 21, 2017 (GMT -0900)
Deering (New)

Weather History for PADE - February, 2013

Change the Weather History Date:

Wednesday, February 13, 2013

  Actual Average (PAOT) Record (PAOT)
Temperature  
Mean Temperature 6 °F -  
Max Temperature 10 °F 5 °F 37 °F (1980)
Min Temperature 1 °F -8 °F -49 °F (1964)
Degree Days  
Heating Degree Days 58    
Moisture  
Dew Point 2 °F    
Average Humidity 83    
Maximum Humidity 91    
Minimum Humidity 77    
Precipitation  
Precipitation 0.03 in - - ()
Sea Level Pressure  
Sea Level Pressure 29.63 in    
Wind  
Wind Speed 2 mph (WSW)    
Max Wind Speed 9 mph    
Max Gust Speed -    
Visibility 5 miles    
Events Fog , Snow    
Averages and records for this station are not official NWS values.
T = Trace of Precipitation, MM = Missing Value Source: NWS Daily Summary

Daily Weather History Graph

Daily Weather History Graph

Search for Another Location

Airport or City:

Trip Planner

Search our weather history database for the weather conditions in past years. The results will help you decide how hot, cold, wet, or windy it might be!

Date:

Astronomy

Feb. 13, 2013 Rise Set
Actual Time 10:02 AM AKST 6:09 PM AKST
Civil Twilight 9:05 AM AKST 7:06 PM AKST
Nautical Twilight 8:05 AM AKST 8:06 PM AKST
Astronomical Twilight 7:05 AM AKST 9:06 PM AKST
Moon 9:42 AM AKST (2/13) No Moon Set
Length of Visible Light 10h 00m
Length of Day
8h 07m
Waxing Crescent, 15% of the Moon is Illuminated
Feb 13
Waxing Crescent
Feb 17
First Quarter
Feb 25
Full
Mar 4
Last Quarter
Mar 11
New

Hourly Weather History & Observations

Time (AKST) Temp. Windchill Dew Point Humidity Pressure Visibility Wind Dir Wind Speed Gust Speed Precip Events Conditions
12:35 AM 5.0 °F - 1.4 °F 85% 29.63 in 10.0 mi Calm Calm - N/A   Scattered Clouds
12:53 AM 3.9 °F - 1.0 °F 88% 29.63 in 10.0 mi Calm Calm - N/A   Mostly Cloudy
1:31 AM 5.0 °F - 1.4 °F 85% 29.63 in 10.0 mi Calm Calm - N/A   Overcast
1:53 AM 6.1 °F - 1.9 °F 83% 29.64 in 10.0 mi Calm Calm - N/A   Overcast
2:27 AM 6.8 °F - 1.4 °F 79% 29.63 in 4.0 mi Calm Calm - 0.00 in Snow Light Snow
2:57 AM 6.8 °F - 1.4 °F 79% 29.63 in 1.8 mi Calm Calm - 0.00 in Snow Light Snow
3:18 AM 8.6 °F - 3.2 °F 79% 29.62 in 1.2 mi Calm Calm - 0.01 in Snow Light Snow
3:49 AM 8.6 °F - 5.0 °F 85% 29.62 in 2.0 mi Calm Calm - 0.02 in Snow Light Snow
3:53 AM 9.0 °F - 5.0 °F 84% 29.62 in 2.0 mi Calm Calm - 0.02 in Snow Light Snow
4:53 AM 10.0 °F - 6.1 °F 84% 29.61 in 4.0 mi Calm Calm - 0.00 in Snow Light Snow
5:48 AM 8.6 °F -1.3 °F 3.2 °F 79% 29.59 in 10.0 mi SSW 5.8 mph - 0.00 in   Overcast
5:53 AM 8.1 °F -3.2 °F 3.9 °F 83% 29.60 in 10.0 mi SSW 6.9 mph - 0.00 in   Overcast
6:53 AM 7.0 °F -3.3 °F 3.9 °F 87% 29.60 in 10.0 mi SW 5.8 mph - N/A   Overcast
7:53 AM 6.1 °F - 3.9 °F 91% 29.60 in 10.0 mi Calm Calm - N/A   Overcast
8:53 AM 6.1 °F -2.8 °F 1.0 °F 80% 29.61 in 10.0 mi NW 4.6 mph - N/A   Overcast
9:53 AM 6.1 °F - 1.0 °F 80% 29.62 in 10.0 mi Calm Calm - N/A   Overcast
10:53 AM 7.0 °F - 1.9 °F 80% 29.63 in 2.5 mi Calm Calm - 0.00 in Snow Light Snow
11:06 AM 6.8 °F - 1.4 °F 79% 29.63 in 1.5 mi Calm Calm - 0.00 in Snow Light Snow
11:22 AM 6.8 °F - 3.2 °F 85% 29.63 in 2.5 mi Calm Calm - 0.00 in Snow Light Snow
11:38 AM 6.8 °F - 1.4 °F 79% 29.63 in 3.0 mi Calm Calm - 0.00 in Snow Light Snow
11:46 AM 6.8 °F - 3.2 °F 85% 29.63 in 2.0 mi Calm Calm - 0.00 in Snow Light Snow
11:53 AM 7.0 °F - 3.0 °F 84% 29.63 in 2.5 mi Calm Calm - 0.00 in Snow Light Snow
12:18 PM 8.6 °F 2.0 °F 3.2 °F 79% 29.63 in 1.8 mi WSW 3.5 mph - 0.00 in Snow Light Snow
12:26 PM 6.8 °F -0.1 °F 3.2 °F 85% 29.63 in 2.5 mi West 3.5 mph - 0.00 in Snow Light Snow
12:38 PM 6.8 °F -2.0 °F 1.4 °F 79% 29.63 in 3.0 mi SW 4.6 mph - 0.00 in Snow Light Snow
12:53 PM 7.0 °F 0.1 °F 3.0 °F 84% 29.63 in 4.0 mi West 3.5 mph - 0.00 in Snow Light Snow
1:29 PM 6.8 °F - 1.4 °F 79% 29.63 in 10.0 mi Calm Calm - 0.00 in   Overcast
1:53 PM 7.0 °F - 1.9 °F 80% 29.64 in 10.0 mi Calm Calm - 0.00 in   Overcast
2:09 PM 6.8 °F -0.1 °F 1.4 °F 79% 29.63 in 10.0 mi NW 3.5 mph - N/A   Overcast
2:23 PM 6.8 °F - 3.2 °F 85% 29.63 in 2.5 mi Calm Calm - 0.00 in Snow Light Snow
2:30 PM 6.8 °F - 3.2 °F 85% 29.63 in 1.0 mi Calm Calm - 0.00 in Snow Light Snow
2:45 PM 6.8 °F -0.1 °F 3.2 °F 85% 29.62 in 2.5 mi SSW 3.5 mph - 0.00 in Snow Light Snow
2:53 PM 7.0 °F - 3.9 °F 87% 29.62 in 2.5 mi Calm Calm - 0.00 in Snow Light Snow
2:56 PM 8.6 °F - 3.2 °F 79% 29.62 in 2.5 mi Calm Calm - 0.00 in Snow Light Snow
3:10 PM 8.6 °F - 3.2 °F 79% 29.62 in 2.5 mi Calm Calm - 0.00 in Snow Light Snow
3:20 PM 6.8 °F -0.1 °F 3.2 °F 85% 29.62 in 1.0 mi WNW 3.5 mph - 0.00 in Snow Light Snow
3:27 PM 6.8 °F -0.1 °F 3.2 °F 85% 29.62 in 0.5 mi WNW 3.5 mph - 0.01 in Fog , Snow Snow
3:40 PM 6.8 °F -0.1 °F 3.2 °F 85% 29.61 in 1.0 mi WNW 3.5 mph - 0.01 in Snow Light Snow
3:53 PM 7.0 °F - 3.0 °F 84% 29.62 in 1.5 mi Calm Calm - 0.01 in Snow Light Snow
3:59 PM 6.8 °F - 1.4 °F 79% 29.61 in 3.0 mi Calm Calm - 0.00 in Snow Light Snow
4:53 PM 8.1 °F -0.5 °F 3.0 °F 80% 29.62 in 4.0 mi WSW 4.6 mph - 0.00 in Snow Light Snow
5:17 PM 6.8 °F -2.0 °F 3.2 °F 85% 29.62 in 4.0 mi SW 4.6 mph - 0.00 in Snow Light Snow
5:27 PM 6.8 °F -2.0 °F 3.2 °F 85% 29.62 in 4.0 mi SW 4.6 mph - 0.00 in Snow Light Snow
5:33 PM 6.8 °F -2.0 °F 3.2 °F 85% 29.62 in 2.5 mi WSW 4.6 mph - 0.00 in Snow Light Snow
5:47 PM 6.8 °F -2.0 °F 3.2 °F 85% 29.62 in 3.0 mi SW 4.6 mph - 0.00 in Snow Light Snow
5:48 PM 6.8 °F -2.0 °F 3.2 °F 85% 29.62 in 2.5 mi SW 4.6 mph - 0.00 in Snow Light Snow
5:53 PM 7.0 °F -3.3 °F 3.0 °F 84% 29.62 in 2.5 mi SW 5.8 mph - 0.00 in Snow Light Snow
6:02 PM 6.8 °F -2.0 °F 3.2 °F 85% 29.62 in 3.0 mi SSW 4.6 mph - 0.00 in Snow Light Snow
6:53 PM 6.1 °F -2.8 °F 1.9 °F 83% 29.64 in 5.0 mi WSW 4.6 mph - 0.00 in Snow Light Snow
7:39 PM 5.0 °F - 1.4 °F 85% 29.65 in 6.0 mi Calm Calm - 0.00 in Snow Light Snow
7:53 PM 5.0 °F - -0.0 °F 80% 29.65 in 9.0 mi Calm Calm - 0.00 in   Overcast
8:01 PM 5.0 °F -2.1 °F 1.4 °F 85% 29.65 in 9.0 mi North 3.5 mph - N/A   Overcast
8:53 PM 5.0 °F - 1.0 °F 84% 29.65 in 10.0 mi Calm Calm - N/A   Overcast
9:53 PM 7.0 °F -6.6 °F 1.0 °F 77% 29.66 in 10.0 mi East 9.2 mph - N/A   Overcast
10:53 PM 3.0 °F -10.5 °F -0.9 °F 84% 29.66 in 10.0 mi SSW 8.1 mph - N/A   Overcast
11:53 PM 1.9 °F -7.6 °F -2.0 °F 83% 29.67 in 10.0 mi SW 4.6 mph - N/A   Overcast